Date String (YYYY-MM-DD hh:mm:ss) UTC,Instrument flags,Ambient pressure (hPa),Sample flow (lpm),Bypass flow (lpm),Sample temperature (°C),Ambient temperature (°C),ASC tube jacket temperature (°C),LED temperature (°C),Box temperature (°C),Sample RH (%),Span deviation,Mass concentration (μg/m³),Mass concentration (μg/m³),Mass concentration (μg/m³)
DateTimeUTC,F1_M11,P_M11,Q1_M11,Q2_M11,T1_M11,T2_M11,T3_M11,T4_M11,T5_M11,U1_M11,ZSPAN_M11,X0_M11,X2_M11,X1_M11
2022-01-12 10:00:00,,0829.7,4.99,0.00,23.1,22.3,00.0,32.0,24.8,09.1,0000.0,0003.71,0000.04,0000.01
2022-01-12 10:01:00,,0829.7,4.99,0.00,23.1,22.4,00.0,32.0,24.9,09.0,0000.0,0002.76,0000.04,0000.01
2022-01-12 10:02:00,,0829.7,5.00,0.00,23.1,22.4,00.0,32.1,24.8,09.2,0000.0,0002.56,0000.04,0000.01
2022-01-12 10:03:00,,0829.6,5.00,0.00,23.1,22.4,00.0,32.1,24.9,09.0,0000.0,0002.56,0000.04,0000.01
2022-01-12 10:04:00,,0829.7,5.00,0.00,23.1,22.4,00.0,32.1,24.9,08.8,0000.0,0002.56,0000.04,0000.01
2022-01-12 10:05:00,,0829.8,5.00,0.00,23.1,22.3,00.0,32.1,24.9,08.9,0000.0,0001.35,0000.04,0000.01
2022-01-12 10:06:00,,0829.8,5.01,0.00,23.1,22.3,00.0,32.1,24.8,09.3,0000.0,0000.78,0000.06,0000.01
2022-01-12 10:07:00,,0829.7,4.99,0.00,23.0,22.2,00.0,32.1,24.8,09.2,0000.0,0000.79,0000.05,0000.01
2022-01-12 10:08:00,,0829.6,5.01,0.00,23.0,22.1,00.0,32.1,24.7,08.8,0000.0,0000.84,0000.07,0000.01
2022-01-12 10:09:00,,0829.7,5.00,0.00,23.0,22.1,00.0,32.0,24.7,08.8,0000.0,0000.85,0000.07,0000.01
2022-01-12 10:10:00,,0829.7,5.00,0.00,23.0,22.1,00.0,32.0,24.7,08.7,0000.0,0000.60,0000.07,0000.01
2022-01-12 10:11:00,,0829.8,5.01,0.00,22.9,22.1,00.0,32.0,24.7,09.1,0000.0,0000.19,0000.06,0000.00
2022-01-12 10:12:00,,0829.8,4.99,0.00,22.9,22.2,00.0,32.0,24.7,08.8,0000.0,0000.33,0000.09,0000.00
2022-01-12 10:13:00,,0829.8,5.00,0.00,23.0,22.2,00.0,32.0,24.7,08.7,0000.0,0000.49,0000.12,0000.00
2022-01-12 10:14:00,,0829.7,5.01,0.00,23.0,22.2,00.0,32.0,24.7,08.5,0000.0,0000.51,0000.13,0000.00
2022-01-12 10:15:00,,0829.6,4.99,0.00,23.0,22.2,00.0,32.0,24.7,08.7,0000.0,0000.52,0000.13,0000.00
2022-01-12 10:16:00,,0829.6,5.00,0.00,23.0,22.2,00.0,32.0,24.7,08.7,0000.0,0000.52,0000.13,0000.00
2022-01-12 10:17:00,,0829.7,5.01,0.00,23.0,22.2,00.0,32.0,24.7,08.6,0000.0,0000.79,0000.10,0000.00
2022-01-12 10:18:00,,0829.7,4.99,0.00,23.0,22.2,00.0,32.0,24.7,08.8,0000.0,0001.06,0000.10,0000.00
2022-01-12 10:19:00,,0829.6,5.01,0.00,23.0,22.2,00.0,32.0,24.7,08.9,0000.0,0002.12,0000.09,0000.00
2022-01-12 10:20:00,,0829.7,5.01,0.00,23.0,22.2,00.0,32.0,24.7,08.8,0000.0,0002.11,0000.09,0000.00
2022-01-12 10:21:00,,0829.6,4.99,0.00,23.0,22.2,00.0,32.0,24.7,08.9,0000.0,0002.15,0000.10,0000.00
2022-01-12 10:22:00,,0829.6,5.00,0.00,23.0,22.2,00.0,32.0,24.8,08.9,0000.0,0002.23,0000.12,0000.00
2022-01-12 10:23:00,,0829.5,5.00,0.00,23.0,22.2,00.0,32.0,24.7,08.9,0000.0,0002.29,0000.10,0000.00
2022-01-12 10:24:00,,0829.5,5.01,0.00,23.0,22.2,00.0,32.0,24.8,08.8,0000.0,0002.72,0000.09,0000.00
2022-01-12 10:25:00,,0829.5,4.99,0.00,23.0,22.2,00.0,32.0,24.8,08.9,0000.0,0002.77,0000.10,0000.00
2022-01-12 10:26:00,,0829.6,5.01,0.00,23.0,22.3,00.0,32.0,24.7,08.9,0000.0,0002.84,0000.12,0000.00
2022-01-12 10:27:00,,0829.6,4.99,0.00,23.0,22.3,00.0,32.0,24.7,08.8,0000.0,0002.84,0000.12,0000.00
2022-01-12 10:28:00,,0829.5,5.00,0.00,23.0,22.3,00.0,32.0,24.8,08.8,0000.0,0002.49,0000.13,0000.00
2022-01-12 10:29:00,,0829.5,5.01,0.00,23.0,22.3,00.0,32.0,24.8,08.7,0000.0,0002.14,0000.15,0000.00
2022-01-12 10:30:00,,0829.5,4.99,0.00,23.0,22.3,00.0,32.0,24.8,08.9,0000.0,0001.23,0000.15,0000.00
2022-01-12 10:31:00,,0829.5,5.00,0.00,23.0,22.3,00.0,32.0,24.8,08.9,0000.0,0001.24,0000.15,0000.00
2022-01-12 10:32:00,,0829.5,5.01,0.00,23.0,22.3,00.0,32.0,24.8,08.6,0000.0,0001.34,0000.14,0000.00
2022-01-12 10:33:00,,0829.5,5.00,0.00,23.0,22.2,00.0,32.0,24.8,08.6,0000.0,0001.26,0000.13,0000.00
2022-01-12 10:34:00,,0829.5,4.99,0.00,23.0,22.2,00.0,32.0,24.7,08.6,0000.0,0001.04,0000.11,0000.00
2022-01-12 10:35:00,,0829.5,5.01,0.00,23.0,22.2,00.0,32.0,24.7,08.8,0000.0,0000.69,0000.10,0000.00
2022-01-12 10:36:00,,0829.5,4.99,0.00,23.0,22.2,00.0,32.0,24.8,08.4,0000.0,0000.62,0000.08,0000.01
2022-01-12 10:37:00,,0829.5,5.00,0.00,23.0,22.2,00.0,32.0,24.7,08.7,0000.0,0000.71,0000.07,0000.01
2022-01-12 10:38:00,,0829.6,5.01,0.00,23.0,22.2,00.0,32.0,24.8,08.7,0000.0,0000.81,0000.08,0000.01
2022-01-12 10:39:00,,0829.6,4.99,0.00,23.0,22.2,00.0,32.0,24.8,08.7,0000.0,0000.79,0000.08,0000.01
2022-01-12 10:40:00,,0829.5,5.01,0.00,23.0,22.2,00.0,32.0,24.7,08.6,0000.0,0000.69,0000.05,0000.01
2022-01-12 10:41:00,,0829.4,4.99,0.00,23.0,22.2,00.0,32.0,24.8,08.4,0000.0,0000.66,0000.05,0000.01
2022-01-12 10:42:00,,0829.5,5.01,0.00,23.0,22.2,00.0,32.0,24.7,08.8,0000.0,0000.77,0000.09,0000.01
2022-01-12 10:43:00,,0829.5,4.99,0.00,23.0,22.3,00.0,32.0,24.8,09.0,0000.0,0000.75,0000.11,0000.01
2022-01-12 10:44:00,,0829.5,5.00,0.00,23.0,22.3,00.0,32.0,24.8,09.1,0000.0,0000.79,0000.12,0000.01
2022-01-12 10:45:00,,0829.5,5.01,0.00,23.0,22.3,00.0,32.0,24.8,08.9,0000.0,0000.76,0000.14,0000.01
2022-01-12 10:46:00,,0829.5,4.98,0.00,23.0,22.3,00.0,32.0,24.8,08.9,0000.0,0000.62,0000.13,0000.01
2022-01-12 10:47:00,,0829.6,5.01,0.00,23.0,22.3,00.0,32.0,24.8,08.8,0000.0,0000.65,0000.15,0000.01
2022-01-12 10:48:00,,0829.5,4.99,0.00,23.0,22.3,00.0,32.0,24.8,08.7,0000.0,0000.51,0000.15,0000.01
2022-01-12 10:49:00,,0829.5,5.01,0.00,23.0,22.3,00.0,32.0,24.8,08.7,0000.0,0000.40,0000.13,0000.01
2022-01-12 10:50:00,,0829.4,4.99,0.00,23.0,22.3,00.0,32.0,24.8,08.7,0000.0,0000.39,0000.12,0000.01
2022-01-12 10:51:00,,0829.4,5.01,0.00,23.0,22.3,00.0,32.0,24.8,08.8,0000.0,0000.39,0000.12,0000.01
2022-01-12 10:52:00,,0829.4,4.99,0.00,23.0,22.3,00.0,32.0,24.8,08.9,0000.0,0000.46,0000.12,0000.01
2022-01-12 10:53:00,,0829.4,5.01,0.00,23.0,22.3,00.0,32.0,24.8,09.0,0000.0,0000.45,0000.09,0000.01
2022-01-12 10:54:00,,0829.3,5.00,0.00,23.0,22.3,00.0,32.0,24.8,09.1,0000.0,0000.47,0000.09,0000.01
2022-01-12 10:55:00,,0829.3,4.99,0.00,23.0,22.3,00.0,32.0,24.8,09.0,0000.0,0000.48,0000.09,0000.01
2022-01-12 10:56:00,,0829.4,5.00,0.00,23.0,22.3,00.0,32.0,24.8,08.8,0000.0,0002.07,0000.08,0000.00
2022-01-12 10:57:00,,0829.2,4.99,0.00,23.0,22.3,00.0,32.0,24.8,09.3,0000.0,0002.16,0000.09,0000.00
2022-01-12 10:58:00,,0829.2,5.00,0.00,23.0,22.3,00.0,32.0,24.8,09.5,0000.0,0002.12,0000.08,0000.00
2022-01-12 10:59:00,,0829.3,5.01,0.00,23.0,22.3,00.0,32.0,24.8,09.5,0000.0,0002.40,0000.08,0000.00
